Starlink 5901

operational
NORAD ID: 55999 Int'l Des: 2023-042 Owner: SPXS Country: US Constellation: starlink
LEOCIRCULAR

Über Starlink 5901

Beschreibung wird geladen...

Live-Position

3D-Globus wird geladen...

Nächste Überflüge

Höhenverlauf

Altitude vs Time

uPlot chart will show altitude changes over time

Zweizeiliger Elementsatz

1 55999U 23042P 25303.67830444 .00000631 00000-0 61761-4 0 9992
2 55999 43.0017 42.5292 0001385 272.3469 87.7214 15.02538471143359
Epoch: 30. Okt. 2025 • Age: 12 hours

Aktueller Status

Höhe 571.1 km
Geschwindigkeit 7.58 km/s
Subsatellitenpunkt -42.23°S, 145.89°W
Startdatum 24. März 2023
Alter 2.6 years
Typ internet

Technische Details

Klassifizierung Payload
Masse 305.00 kg
Trockenmasse 290.00 kg
Gesamtmasse 305.00 kg
Länge 0.20 m
Durchmesser 2.80 m
Spannweite 9.00 m
Form Box + pan
Hersteller SPXS
Bus-Typ Starlink
Phasenstatus In Orbit
Besitzer/Staat SPXS/US

Große Konstellationen

Loading constellations...